Home   Weather   Götzis   Past weeks

Flag for Austria Past Weather in Götzis, Vorarlberg, Austria — Yesterday and Last 2 Weeks

Now
N/A

Passing clouds.


Feels Like: N/A
Forecast: 43 / 62 °F
Wind: 12 mph from Southeast

Location: Feldkirch

Current Time: Apr 24, 2017 at 5:43:11 pm

Latest Report: Apr 24, 2017 at 5:00 pm


Visibility: 1 mi

Pressure: N/A

Humidity: N/A

Dew Point: N/A

Location of GötzisLocation

Past Weather in Götzis — Graph

°F

Götzis Temperature Yesterday

Maximum temperature yesterday: 55 °F (at 3:00 pm)
Minimum temperature yesterday: 39 °F (at 4:00 am)
Average temperature yesterday: 46 °F

High & Low Weather Summary for the Past Weeks

 TemperatureHumidityPressure
High76 °F (Apr 10, 6:00 pm)100% (Apr 19, 7:00 am)30.59 "Hg (Apr 19, 7:00 am)
Low27 °F (Apr 20, 7:00 am)23% (Apr 21, 5:00 pm)29.90 "Hg (Apr 24, 4:00 pm)
Average48 °F69%30.19 "Hg
* Reported Apr 9 4:00 pm — Apr 24 4:00 pm, Götzis, Weather by CustomWeather, © 2017

Note: Actual official high and low records may vary slightly from our data, if they occured in-between our weather recording intervals... More about our weather records

Advertising

Götzis Weather History for the Previous 24 Hours

Scroll right to see more
 ConditionsComfort  
Time TempWeatherWind HumidityBarometerVisibility
4:00 pm
Mon, Apr 24
62 °FRefreshingly cool.2 mph48%29.90 "HgN/A
3:00 pm62 °FRefreshingly cool.2 mph50%29.93 "HgN/A
1:00 pm57 °FRefreshingly cool.2 mph59%29.99 "HgN/A
12:00 pm55 °FCool.1 mph54%30.03 "HgN/A
11:00 am52 °FSunny.1 mph59%30.06 "Hg19 mi
10:00 am47 °FCool.1 mph63%30.09 "HgN/A
9:00 am41 °FQuite cool.No wind78%30.13 "HgN/A
8:00 am36 °FChilly.No wind89%30.15 "HgN/A
7:00 am33 °FSunny.No wind95%30.15 "Hg19 mi
6:00 am33 °FChilly.1 mph92%30.16 "HgN/A
5:00 am33 °FChilly.No wind91%30.17 "HgN/A
4:00 am34 °FChilly.No wind91%30.17 "HgN/A
3:00 am36 °FChilly.No wind87%30.19 "HgN/A
2:00 am37 °FChilly.No wind86%30.20 "HgN/A
1:00 am38 °FChilly.1 mph80%30.21 "HgN/A
12:00 am40 °FQuite cool.No wind75%30.21 "HgN/A
11:00 pm
Sun, Apr 23
42 °FQuite cool.1 mph72%30.22 "HgN/A
10:00 pm43 °FQuite cool.1 mph69%30.21 "HgN/A
9:00 pm45 °FCool.No wind65%30.20 "HgN/A
8:00 pm48 °FCool.2 mph53%30.18 "HgN/A
7:00 pm52 °FCool.3 mph51%30.16 "HgN/A
6:00 pm54 °FCool.3 mph49%30.16 "HgN/A
5:00 pm54 °FCool.5 mph51%30.16 "HgN/A
Weather by CustomWeather, © 2017

See weather overviewHow to use our weather pages